Regional Weather Roundup
Issued by NWS Cleveland, OH

Home | Current Version | Previous Version | Graphics & Text | Print | Product List | Glossary On
Versions: 1 2 3 4 5 6 7 8 9 10 11 12 13 14 15 16 17 18 19 20 21 22 23 24 25 26 27 28 29 30 31 32 33 34 35 36 37 38 39 40 41 42 43 44 45 46 47 48 49 50
000
ASUS41 KCLE 221700
RWRCLE
OHIO REGIONAL WEATHER ROUNDUP
NATIONAL WEATHER SERVICE WILMINGTON, OH
100 PM EDT WED OCT 22 2014

NOTE: "FAIR" INDICATES FEW OR NO CLOUDS BELOW 12,000 FEET WITH NO
SIGNIFICANT WEATHER AND/OR OBSTRUCTIONS TO VISIBILITY.

OHZ001>008-015>018-024>027-034-035-043-044-221800-
   NORTHWEST OHIO

CITY           SKY/WX    TMP DP  RH WIND       PRES   REMARKS
DEFIANCE       CLOUDY    48  39  71 N9        30.35F
FINDLAY        CLOUDY    49  41  74 N12       30.32R
TOLEDO EXPRESS CLOUDY    48  39  71 N7        30.33F
TOLEDO METCALF CLOUDY    50  39  66 N10       30.34S
LIMA           CLOUDY    48  41  76 N8        30.32S
$$

OHZ009>014-019>023-028>033-038-089-221800-
   NORTHEAST OHIO

CITY           SKY/WX    TMP DP  RH WIND       PRES   REMARKS
CLE-HOPKINS    CLOUDY    48  43  82 N15       30.30S
CLE-LAKEFRONT  CLOUDY    50  43  77 N14       30.26F
CUY CO. ARPT   CLOUDY    50  45  81 NE16      30.27S
LORAIN-ELYRIA    N/A    N/A N/A N/A MISG      30.29S
ASHTABULA      CLOUDY    48  41  76 N9        30.25S
AKRON-CANTON   CLOUDY    49  42  77 N9        30.23F
WOOSTER        NOT AVBL
MANSFIELD      CLOUDY    46  43  89 N12       30.27S
YOUNGSTOWN     CLOUDY    47  42  83 N13       30.22S
$$

OHZ042-051>053-060>062-070>072-077>081-221800-
  SOUTHWEST OHIO

CITY           SKY/WX    TMP DP  RH WIND       PRES   REMARKS
CINC-COVINGTON PTSUNNY   53  39  59 N12       30.30S
CINC-LUNKEN    CLOUDY    53  42  66 N10       30.32R
HAMILTON       CLOUDY    53  43  68 N8        30.33S
DAYTON         NOT AVBL
WRIGHT-PAT AFB CLOUDY    49  41  73 N7        30.31S
DAYTON GENERAL CLOUDY    49  42  77 N9        30.30S
WILMINGTON     CLOUDY    48  40  73 N12       30.29S
$$

OHZ036-037-039>041-045>050-054>059-063>069-073>076-082>088-221800-
  CENTRAL AND SOUTHEAST OHIO

CITY           SKY/WX    TMP DP  RH WIND       PRES   REMARKS
COLUMBUS       CLOUDY    49  42  77 N14       30.27R
OSU AIRPORT    CLOUDY    51  42  71 N13       30.27R
BOLTON FIELD   NOT AVBL
RICKENBACK AFB NOT AVBL
NEWARK         CLOUDY    48  42  80 N12G20    30.26R
MARION         CLOUDY    49  41  74 N15       30.29S
LANCASTER      CLOUDY    51  43  74 N13G18    30.26S
ZANESVILLE     CLOUDY    49  42  77 N9G18     30.24R
NEW PHILLY     CLOUDY    50  44  80 N8        30.24S
$$



USA.gov is the U.S. government's official web portal to all federal, state and local government web resources and services.